TimeMST,TemperatureF,Dew PointF,Humidity,Sea Level PressureIn,VisibilityMPH,Wind Direction,Wind SpeedMPH,Gust SpeedMPH,PrecipitationIn,Events,Conditions,WindDirDegrees,DateUTC
12:54 AM,25.0,18.0,75,30.38,10.0,WSW,17.3,-,N/A,,Clear,250,2013-02-02 07:54:00
1:54 AM,25.0,18.0,75,30.39,10.0,West,21.9,-,N/A,,Clear,260,2013-02-02 08:54:00
2:54 AM,24.1,18.0,77,30.41,10.0,WSW,11.5,-,N/A,,Clear,250,2013-02-02 09:54:00
3:54 AM,23.0,18.0,81,30.43,10.0,SW,11.5,-,N/A,,Clear,230,2013-02-02 10:54:00
5:54 AM,21.9,17.1,82,30.46,10.0,WSW,16.1,-,N/A,,Clear,250,2013-02-02 12:54:00
6:54 AM,23.0,17.1,78,30.47,10.0,WSW,24.2,-,N/A,,Clear,250,2013-02-02 13:54:00
7:54 AM,23.0,17.1,78,30.50,10.0,WSW,13.8,-,N/A,,Clear,240,2013-02-02 14:54:00
8:54 AM,26.1,18.0,71,30.51,10.0,SW,16.1,-,N/A,,Clear,230,2013-02-02 15:54:00
9:54 AM,30.0,19.9,66,30.50,10.0,WSW,15.0,-,N/A,,Clear,250,2013-02-02 16:54:00
10:54 AM,32.0,19.9,61,30.51,10.0,WSW,19.6,-,N/A,,Clear,250,2013-02-02 17:54:00
11:54 AM,35.1,19.9,54,30.47,10.0,West,20.7,-,N/A,,Clear,260,2013-02-02 18:54:00
12:54 PM,37.0,19.9,50,30.44,10.0,West,18.4,-,N/A,,Clear,260,2013-02-02 19:54:00
1:54 PM,39.0,19.9,46,30.40,10.0,West,18.4,-,N/A,,Clear,260,2013-02-02 20:54:00
2:54 PM,39.9,19.0,43,30.40,10.0,West,16.1,-,N/A,,Clear,260,2013-02-02 21:54:00
3:54 PM,39.9,18.0,41,30.39,10.0,WSW,13.8,-,N/A,,Clear,250,2013-02-02 22:54:00
4:54 PM,37.9,18.0,45,30.40,10.0,WSW,12.7,-,N/A,,Clear,240,2013-02-02 23:54:00
5:54 PM,34.0,18.0,52,30.42,10.0,WSW,13.8,-,N/A,,Clear,240,2013-02-03 00:54:00
6:54 PM,33.1,18.0,54,30.43,10.0,SW,10.4,-,N/A,,Clear,230,2013-02-03 01:54:00
7:54 PM,30.9,17.1,57,30.44,10.0,WSW,12.7,-,N/A,,Clear,240,2013-02-03 02:54:00
8:54 PM,30.0,17.1,59,30.42,10.0,SW,10.4,-,N/A,,Clear,220,2013-02-03 03:54:00
9:54 PM,30.9,16.0,54,30.38,10.0,SSW,10.4,-,N/A,,Clear,210,2013-02-03 04:54:00
10:54 PM,28.0,15.1,58,30.39,10.0,WSW,11.5,-,N/A,,Clear,240,2013-02-03 05:54:00
11:54 PM,28.0,15.1,58,30.35,10.0,WSW,15.0,-,N/A,,Clear,240,2013-02-03 06:54:00